Time,TemperatureF,DewpointF,PressureIn,WindDirection,WindDirectionDegrees,WindSpeedMPH,WindSpeedGustMPH,Humidity,HourlyPrecipIn,Conditions,Clouds,dailyrainin,SoftwareType,DateUTC
2013-01-03 00:02:00,33.0,19.0,-100.00,SE,146,10.0,26.0,55,-99.99,,,-99.99,,2013-01-03 09:02:00,
2013-01-03 00:12:00,33.0,19.0,-100.00,SE,146,10.0,26.0,55,-99.99,,,-99.99,,2013-01-03 09:12:00,
2013-01-03 00:22:00,32.0,20.0,-100.00,ENE,76,5.0,27.0,60,-99.99,,,-99.99,,2013-01-03 09:22:00,
2013-01-03 00:33:00,32.0,19.0,-100.00,WNW,298,2.0,12.0,59,-99.99,,,-99.99,,2013-01-03 09:33:00,
2013-01-03 00:42:00,32.0,19.0,-100.00,WNW,298,2.0,12.0,59,-99.99,,,-99.99,,2013-01-03 09:42:00,
2013-01-03 00:52:00,32.0,20.0,-100.00,NNE,21,8.0,15.0,60,-99.99,,,-99.99,,2013-01-03 09:52:00,
2013-01-03 01:02:00,31.0,20.0,-100.00,NNE,21,6.0,17.0,62,-99.99,,,-99.99,,2013-01-03 10:02:00,
2013-01-03 01:12:00,31.0,20.0,-100.00,NNE,21,6.0,17.0,62,-99.99,,,-99.99,,2013-01-03 10:12:00,
2013-01-03 01:22:00,32.0,19.0,-100.00,ESE,112,5.0,18.0,58,-99.99,,,-99.99,,2013-01-03 10:22:00,
2013-01-03 01:32:00,32.0,19.0,-100.00,ESE,112,5.0,18.0,58,-99.99,,,-99.99,,2013-01-03 10:32:00,
2013-01-03 01:42:00,32.0,19.0,-100.00,ESE,112,5.0,18.0,58,-99.99,,,-99.99,,2013-01-03 10:42:00,
2013-01-03 01:52:00,31.0,19.0,-100.00,East,84,4.0,16.0,61,-99.99,,,-99.99,,2013-01-03 10:52:00,
2013-01-03 02:02:00,32.0,19.0,-100.00,East,91,5.0,16.0,58,-99.99,,,-99.99,,2013-01-03 11:02:00,
2013-01-03 02:12:00,32.0,19.0,-100.00,East,91,5.0,16.0,58,-99.99,,,-99.99,,2013-01-03 11:12:00,
2013-01-03 02:22:00,32.0,20.0,-100.00,NNW,347,3.0,19.0,61,-99.99,,,-99.99,,2013-01-03 11:22:00,
2013-01-03 02:33:00,32.0,20.0,-100.00,NNW,347,5.0,20.0,62,-99.99,,,-99.99,,2013-01-03 11:33:00,
2013-01-03 02:42:00,32.0,20.0,-100.00,NNW,347,5.0,20.0,62,-99.99,,,-99.99,,2013-01-03 11:42:00,
2013-01-03 02:52:00,32.0,20.0,-100.00,NW,310,4.0,18.0,62,-99.99,,,-99.99,,2013-01-03 11:52:00,
2013-01-03 03:02:00,32.0,19.0,-100.00,South,187,5.0,14.0,59,-99.99,,,-99.99,,2013-01-03 12:02:00,
2013-01-03 03:12:00,32.0,19.0,-100.00,South,187,5.0,14.0,59,-99.99,,,-99.99,,2013-01-03 12:12:00,
2013-01-03 03:22:00,31.0,20.0,-100.00,WNW,298,5.0,21.0,63,-99.99,,,-99.99,,2013-01-03 12:22:00,
2013-01-03 03:32:00,32.0,20.0,-100.00,NW,311,7.0,20.0,61,-99.99,,,-99.99,,2013-01-03 12:32:00,
2013-01-03 03:42:00,32.0,20.0,-100.00,NW,311,7.0,20.0,61,-99.99,,,-99.99,,2013-01-03 12:42:00,
2013-01-03 03:52:00,32.0,21.0,-100.00,SE,135,7.0,17.0,64,-99.99,,,-99.99,,2013-01-03 12:52:00,
2013-01-03 04:02:00,32.0,22.0,-100.00,NNW,336,2.0,24.0,65,-99.99,,,-99.99,,2013-01-03 13:02:00,
2013-01-03 04:12:00,32.0,22.0,-100.00,NNW,336,2.0,24.0,65,-99.99,,,-99.99,,2013-01-03 13:12:00,
2013-01-03 04:22:00,31.0,21.0,-100.00,NE,42,6.0,18.0,67,-99.99,,,-99.99,,2013-01-03 13:22:00,
2013-01-03 04:32:00,31.0,22.0,-100.00,SE,132,2.0,11.0,70,-99.99,,,-99.99,,2013-01-03 13:32:00,
2013-01-03 04:42:00,31.0,22.0,-100.00,SE,132,2.0,11.0,70,-99.99,,,-99.99,,2013-01-03 13:42:00,
2013-01-03 04:52:00,31.0,21.0,-100.00,ESE,108,4.0,17.0,66,-99.99,,,-99.99,,2013-01-03 13:52:00,
2013-01-03 05:02:00,31.0,21.0,-100.00,NW,314,1.0,9.0,67,-99.99,,,-99.99,,2013-01-03 14:02:00,
2013-01-03 05:12:00,31.0,21.0,-100.00,NW,314,1.0,9.0,67,-99.99,,,-99.99,,2013-01-03 14:12:00,
2013-01-03 05:22:00,30.0,21.0,-100.00,NE,35,4.0,20.0,70,-99.99,,,-99.99,,2013-01-03 14:22:00,
2013-01-03 05:32:00,31.0,22.0,-100.00,WSW,240,4.0,15.0,70,-99.99,,,-99.99,,2013-01-03 14:32:00,
2013-01-03 05:42:00,31.0,22.0,-100.00,WSW,240,4.0,15.0,70,-99.99,,,-99.99,,2013-01-03 14:42:00,
2013-01-03 05:53:00,31.0,22.0,-100.00,NW,320,1.0,19.0,70,-99.99,,,-99.99,,2013-01-03 14:53:00,
2013-01-03 06:02:00,30.0,22.0,-100.00,SE,131,0.0,8.0,71,-99.99,,,-99.99,,2013-01-03 15:02:00,
2013-01-03 06:12:00,30.0,22.0,-100.00,SE,131,0.0,8.0,71,-99.99,,,-99.99,,2013-01-03 15:12:00,
2013-01-03 06:22:00,30.0,21.0,-100.00,NNE,15,5.0,9.0,70,-99.99,,,-99.99,,2013-01-03 15:22:00,
2013-01-03 06:33:00,31.0,22.0,-100.00,NE,42,6.0,12.0,70,-99.99,,,-99.99,,2013-01-03 15:33:00,
2013-01-03 06:42:00,31.0,22.0,-100.00,NE,42,6.0,12.0,70,-99.99,,,-99.99,,2013-01-03 15:42:00,
2013-01-03 06:52:00,32.0,20.0,-100.00,South,178,7.0,29.0,61,-99.99,,,-99.99,,2013-01-03 15:52:00,
2013-01-03 07:03:00,32.0,20.0,-100.00,ESE,105,7.0,30.0,62,-99.99,,,-99.99,,2013-01-03 16:03:00,
2013-01-03 07:12:00,32.0,20.0,-100.00,ESE,105,7.0,30.0,62,-99.99,,,-99.99,,2013-01-03 16:12:00,
2013-01-03 07:22:00,32.0,20.0,-100.00,ESE,109,11.0,26.0,61,-99.99,,,-99.99,,2013-01-03 16:22:00,
2013-01-03 07:33:00,32.0,20.0,-100.00,ESE,113,11.0,29.0,61,-99.99,,,-99.99,,2013-01-03 16:33:00,
2013-01-03 07:43:00,32.0,20.0,-100.00,ESE,113,11.0,29.0,61,-99.99,,,-99.99,,2013-01-03 16:43:00,
2013-01-03 07:52:00,32.0,20.0,-100.00,West,264,2.0,13.0,61,-99.99,,,-99.99,,2013-01-03 16:52:00,
2013-01-03 08:02:00,33.0,20.0,-100.00,SE,136,11.0,28.0,58,-99.99,,,-99.99,,2013-01-03 17:02:00,
2013-01-03 08:12:00,33.0,20.0,-100.00,SE,136,11.0,28.0,58,-99.99,,,-99.99,,2013-01-03 17:12:00,
2013-01-03 08:22:00,32.0,20.0,-100.00,ESE,111,5.0,26.0,60,-99.99,,,-99.99,,2013-01-03 17:22:00,
2013-01-03 08:33:00,32.0,20.0,-100.00,North,9,5.0,28.0,60,-99.99,,,-99.99,,2013-01-03 17:33:00,
2013-01-03 08:42:00,32.0,20.0,-100.00,North,9,5.0,28.0,60,-99.99,,,-99.99,,2013-01-03 17:42:00,
2013-01-03 08:52:00,33.0,21.0,-100.00,SSW,201,5.0,26.0,60,-99.99,,,-99.99,,2013-01-03 17:52:00,
2013-01-03 09:03:00,32.0,20.0,-100.00,WSW,249,2.0,20.0,61,-99.99,,,-99.99,,2013-01-03 18:03:00,
2013-01-03 09:12:00,32.0,20.0,-100.00,WSW,249,2.0,20.0,61,-99.99,,,-99.99,,2013-01-03 18:12:00,
2013-01-03 09:22:00,32.0,20.0,-100.00,SW,224,4.0,19.0,60,-99.99,,,-99.99,,2013-01-03 18:22:00,
2013-01-03 09:33:00,33.0,20.0,-100.00,NE,43,5.0,32.0,58,-99.99,,,-99.99,,2013-01-03 18:33:00,
2013-01-03 09:42:00,33.0,20.0,-100.00,NE,43,5.0,32.0,58,-99.99,,,-99.99,,2013-01-03 18:42:00,
2013-01-03 09:53:00,33.0,19.0,-100.00,SE,140,9.0,39.0,56,-99.99,,,-99.99,,2013-01-03 18:53:00,
2013-01-03 10:03:00,33.0,19.0,-100.00,SSE,149,10.0,35.0,57,-99.99,,,-99.99,,2013-01-03 19:03:00,
2013-01-03 10:12:00,33.0,19.0,-100.00,SSE,149,10.0,35.0,57,-99.99,,,-99.99,,2013-01-03 19:12:00,
2013-01-03 10:55:00,33.0,20.0,-100.00,NW,309,8.0,29.0,58,-99.99,,,-99.99,,2013-01-03 19:55:00,
2013-01-03 11:02:00,33.0,21.0,-100.00,SE,124,15.0,44.0,60,-99.99,,,-99.99,,2013-01-03 20:02:00,
2013-01-03 11:12:00,33.0,21.0,-100.00,SE,124,15.0,44.0,60,-99.99,,,-99.99,,2013-01-03 20:12:00,
2013-01-03 11:22:00,33.0,19.0,-100.00,SE,133,15.0,34.0,56,-99.99,,,-99.99,,2013-01-03 20:22:00,
2013-01-03 11:33:00,33.0,20.0,-100.00,NE,49,12.0,39.0,59,-99.99,,,-99.99,,2013-01-03 20:33:00,
2013-01-03 11:42:00,33.0,20.0,-100.00,NE,49,12.0,39.0,59,-99.99,,,-99.99,,2013-01-03 20:42:00,
2013-01-03 11:53:00,33.0,20.0,-100.00,SE,146,11.0,38.0,58,-99.99,,,-99.99,,2013-01-03 20:53:00,
2013-01-03 12:02:00,32.0,20.0,-100.00,SE,134,12.0,45.0,60,-99.99,,,-99.99,,2013-01-03 21:02:00,
2013-01-03 12:12:00,32.0,20.0,-100.00,SE,134,12.0,45.0,60,-99.99,,,-99.99,,2013-01-03 21:12:00,
2013-01-03 12:22:00,33.0,21.0,-100.00,ESE,122,17.0,46.0,60,-99.99,,,-99.99,,2013-01-03 21:22:00,
2013-01-03 12:34:00,32.0,20.0,-100.00,SE,132,17.0,37.0,62,-99.99,,,-99.99,,2013-01-03 21:34:00,
2013-01-03 12:46:00,32.0,20.0,-100.00,SE,132,17.0,37.0,62,-99.99,,,-99.99,,2013-01-03 21:46:00,
2013-01-03 12:52:00,33.0,22.0,-100.00,ESE,121,16.0,44.0,64,-99.99,,,-99.99,,2013-01-03 21:52:00,
2013-01-03 13:02:00,33.0,20.0,-100.00,SE,134,18.0,41.0,59,-99.99,,,-99.99,,2013-01-03 22:02:00,
2013-01-03 13:12:00,33.0,20.0,-100.00,SE,134,18.0,41.0,59,-99.99,,,-99.99,,2013-01-03 22:12:00,
2013-01-03 13:22:00,32.0,21.0,-100.00,SE,127,15.0,42.0,63,-99.99,,,-99.99,,2013-01-03 22:22:00,
2013-01-03 13:32:00,32.0,21.0,-100.00,SE,124,21.0,49.0,64,-99.99,,,-99.99,,2013-01-03 22:32:00,
2013-01-03 13:42:00,32.0,21.0,-100.00,SE,124,21.0,49.0,64,-99.99,,,-99.99,,2013-01-03 22:42:00,
2013-01-03 13:52:00,32.0,21.0,-100.00,SE,128,24.0,47.0,64,-99.99,,,-99.99,,2013-01-03 22:52:00,
2013-01-03 14:02:00,32.0,20.0,-100.00,ESE,122,17.0,44.0,60,-99.99,,,-99.99,,2013-01-03 23:02:00,
2013-01-03 14:12:00,32.0,20.0,-100.00,ESE,122,17.0,44.0,60,-99.99,,,-99.99,,2013-01-03 23:12:00,
2013-01-03 14:22:00,32.0,20.0,-100.00,ESE,117,18.0,45.0,61,-99.99,,,-99.99,,2013-01-03 23:22:00,
2013-01-03 14:32:00,33.0,21.0,-100.00,SE,127,13.0,43.0,60,-99.99,,,-99.99,,2013-01-03 23:32:00,
2013-01-03 14:42:00,33.0,21.0,-100.00,SE,127,13.0,43.0,60,-99.99,,,-99.99,,2013-01-03 23:42:00,
2013-01-03 14:52:00,33.0,20.0,-100.00,ESE,123,14.0,46.0,58,-99.99,,,-99.99,,2013-01-03 23:52:00,
2013-01-03 15:02:00,33.0,20.0,-100.00,SE,133,12.0,40.0,58,-99.99,,,-99.99,,2013-01-04 00:02:00,
2013-01-03 15:12:00,33.0,20.0,-100.00,SE,133,12.0,40.0,58,-99.99,,,-99.99,,2013-01-04 00:12:00,
2013-01-03 15:22:00,33.0,20.0,-100.00,SE,138,10.0,34.0,59,-99.99,,,-99.99,,2013-01-04 00:22:00,
2013-01-03 15:32:00,33.0,20.0,-100.00,SE,144,9.0,35.0,59,-99.99,,,-99.99,,2013-01-04 00:32:00,
2013-01-03 15:42:00,33.0,20.0,-100.00,SE,144,9.0,35.0,59,-99.99,,,-99.99,,2013-01-04 00:42:00,
2013-01-03 15:52:00,33.0,20.0,-100.00,SE,140,11.0,28.0,59,-99.99,,,-99.99,,2013-01-04 00:52:00,
2013-01-03 16:02:00,33.0,19.0,-100.00,SE,131,9.0,23.0,57,-99.99,,,-99.99,,2013-01-04 01:02:00,
2013-01-03 16:12:00,33.0,19.0,-100.00,SE,131,9.0,23.0,57,-99.99,,,-99.99,,2013-01-04 01:12:00,
2013-01-03 16:22:00,33.0,19.0,-100.00,SSE,161,5.0,35.0,56,-99.99,,,-99.99,,2013-01-04 01:22:00,
2013-01-03 16:32:00,33.0,20.0,-100.00,WSW,237,6.0,29.0,58,-99.99,,,-99.99,,2013-01-04 01:32:00,
2013-01-03 16:42:00,33.0,20.0,-100.00,WSW,237,6.0,29.0,58,-99.99,,,-99.99,,2013-01-04 01:42:00,
2013-01-03 16:52:00,33.0,18.0,-100.00,NNW,341,4.0,35.0,54,-99.99,,,-99.99,,2013-01-04 01:52:00,
2013-01-03 17:02:00,33.0,18.0,-100.00,NW,306,4.0,31.0,54,-99.99,,,-99.99,,2013-01-04 02:02:00,
2013-01-03 17:12:00,33.0,18.0,-100.00,NW,306,4.0,31.0,54,-99.99,,,-99.99,,2013-01-04 02:12:00,
2013-01-03 17:22:00,33.0,19.0,-100.00,NNE,33,14.0,30.0,56,-99.99,,,-99.99,,2013-01-04 02:22:00,
2013-01-03 17:32:00,31.0,20.0,-100.00,NE,42,11.0,30.0,64,-99.99,,,-99.99,,2013-01-04 02:32:00,
2013-01-03 17:42:00,31.0,20.0,-100.00,NE,42,11.0,30.0,64,-99.99,,,-99.99,,2013-01-04 02:42:00,
2013-01-03 17:52:00,30.0,19.0,-100.00,NW,305,3.0,17.0,64,-99.99,,,-99.99,,2013-01-04 02:52:00,
2013-01-03 18:02:00,30.0,19.0,-100.00,NW,305,3.0,17.0,64,-99.99,,,-99.99,,2013-01-04 03:02:00,
2013-01-03 18:12:00,30.0,19.0,-100.00,NW,305,3.0,17.0,64,-99.99,,,-99.99,,2013-01-04 03:12:00,
2013-01-03 18:22:00,31.0,20.0,-100.00,SW,231,2.0,36.0,62,-99.99,,,-99.99,,2013-01-04 03:22:00,
2013-01-03 18:32:00,30.0,20.0,-100.00,SSE,147,3.0,17.0,67,-99.99,,,-99.99,,2013-01-04 03:32:00,
2013-01-03 18:42:00,30.0,20.0,-100.00,SSE,147,3.0,17.0,67,-99.99,,,-99.99,,2013-01-04 03:42:00,
2013-01-03 18:52:00,32.0,19.0,-100.00,East,79,6.0,24.0,58,-99.99,,,-99.99,,2013-01-04 03:52:00,
2013-01-03 19:02:00,31.0,21.0,-100.00,SE,146,3.0,9.0,65,-99.99,,,-99.99,,2013-01-04 04:02:00,
2013-01-03 19:12:00,31.0,21.0,-100.00,SE,146,3.0,9.0,65,-99.99,,,-99.99,,2013-01-04 04:12:00,
2013-01-03 19:22:00,30.0,21.0,-100.00,NW,311,2.0,11.0,69,-99.99,,,-99.99,,2013-01-04 04:22:00,
2013-01-03 19:32:00,29.0,21.0,-100.00,NE,34,8.0,17.0,73,-99.99,,,-99.99,,2013-01-04 04:32:00,
2013-01-03 19:42:00,29.0,21.0,-100.00,NE,34,8.0,17.0,73,-99.99,,,-99.99,,2013-01-04 04:42:00,
2013-01-03 19:52:00,28.0,21.0,-100.00,WNW,283,6.0,11.0,74,-99.99,,,-99.99,,2013-01-04 04:52:00,
2013-01-03 20:03:00,28.0,21.0,-100.00,WNW,283,6.0,11.0,74,-99.99,,,-99.99,,2013-01-04 05:03:00,
2013-01-03 20:12:00,28.0,21.0,-100.00,WNW,283,6.0,11.0,74,-99.99,,,-99.99,,2013-01-04 05:12:00,
2013-01-03 20:22:00,29.0,20.0,-100.00,North,11,0.0,9.0,68,-99.99,,,-99.99,,2013-01-04 05:22:00,
2013-01-03 20:33:00,30.0,20.0,-100.00,South,171,2.0,8.0,67,-99.99,,,-99.99,,2013-01-04 05:33:00,
2013-01-03 20:42:00,30.0,20.0,-100.00,South,171,2.0,8.0,67,-99.99,,,-99.99,,2013-01-04 05:42:00,
2013-01-03 20:52:00,29.0,20.0,-100.00,WSW,253,4.0,9.0,70,-99.99,,,-99.99,,2013-01-04 05:52:00,
2013-01-03 21:02:00,30.0,19.0,-100.00,ESE,120,3.0,15.0,63,-99.99,,,-99.99,,2013-01-04 06:02:00,
2013-01-03 21:12:00,30.0,19.0,-100.00,ESE,120,3.0,15.0,63,-99.99,,,-99.99,,2013-01-04 06:12:00,
2013-01-03 21:22:00,31.0,20.0,-100.00,WNW,302,5.0,9.0,63,-99.99,,,-99.99,,2013-01-04 06:22:00,
2013-01-03 21:32:00,31.0,19.0,-100.00,ENE,58,6.0,12.0,61,-99.99,,,-99.99,,2013-01-04 06:32:00,
2013-01-03 21:42:00,31.0,19.0,-100.00,ENE,58,6.0,12.0,61,-99.99,,,-99.99,,2013-01-04 06:42:00,
2013-01-03 21:52:00,30.0,21.0,-100.00,West,268,3.0,12.0,68,-99.99,,,-99.99,,2013-01-04 06:52:00,
2013-01-03 22:02:00,29.0,20.0,-100.00,SE,141,3.0,6.0,69,-99.99,,,-99.99,,2013-01-04 07:02:00,
2013-01-03 22:12:00,29.0,20.0,-100.00,SE,141,3.0,6.0,69,-99.99,,,-99.99,,2013-01-04 07:12:00,
2013-01-03 22:22:00,30.0,20.0,-100.00,WSW,249,3.0,9.0,67,-99.99,,,-99.99,,2013-01-04 07:22:00,
2013-01-03 22:32:00,29.0,20.0,-100.00,NW,319,1.0,7.0,69,-99.99,,,-99.99,,2013-01-04 07:32:00,
2013-01-03 22:42:00,29.0,20.0,-100.00,NW,319,1.0,7.0,69,-99.99,,,-99.99,,2013-01-04 07:42:00,
2013-01-03 22:52:00,29.0,20.0,-100.00,WSW,238,1.0,6.0,68,-99.99,,,-99.99,,2013-01-04 07:52:00,
2013-01-03 23:02:00,29.0,20.0,-100.00,WSW,238,1.0,6.0,68,-99.99,,,-99.99,,2013-01-04 08:02:00,
2013-01-03 23:12:00,29.0,20.0,-100.00,WSW,238,1.0,6.0,68,-99.99,,,-99.99,,2013-01-04 08:12:00,
2013-01-03 23:22:00,32.0,19.0,-100.00,ESE,102,4.0,11.0,59,-99.99,,,-99.99,,2013-01-04 08:22:00,
2013-01-03 23:32:00,32.0,20.0,-100.00,SSE,153,5.0,17.0,60,-99.99,,,-99.99,,2013-01-04 08:32:00,
2013-01-03 23:42:00,32.0,20.0,-100.00,SSE,153,5.0,17.0,60,-99.99,,,-99.99,,2013-01-04 08:42:00,
2013-01-03 23:52:00,32.0,20.0,-100.00,SSE,153,5.0,17.0,60,-99.99,,,-99.99,,2013-01-04 08:52:00,